• In Hungary
  • List of Countries
  • For 7 days
  • Water Temperature
  • Satellite Maps
  • Weather Map
  • News
  • Weather Widgets
  • user-avatar
    Login

    Hourly Weather Kizray

    Today, 16 July, Monday

    Time Temperature Precipitation Wind Pressure Humidity
    00:00 +19°C° 0 mm 3 mps 733 mmHg 91%
    01:00 +19°C° 0 mm 4 mps 733 mmHg 91%
    02:00 +18°C° 0 mm 3 mps 734 mmHg 91%
    03:00 +18°C° 0 mm 3 mps 734 mmHg 92%
    04:00 +17°C° 0 mm 3 mps 734 mmHg 92%
    05:00 +18°C° 0 mm 3 mps 734 mmHg 89%
    06:00 +19°C° 0 mm 4 mps 734 mmHg 86%
    07:00 +20°C° 0 mm 4 mps 735 mmHg 83%
    08:00 +22°C° 0 mm 4 mps 735 mmHg 76%
    09:00 +23°C° 0 mm 4 mps 735 mmHg 70%
    10:00 +26°C° 0 mm 4 mps 735 mmHg 63%
    11:00 +27°C° 0 mm 4 mps 735 mmHg 60%
    12:00 +27°C° 0 mm 4 mps 735 mmHg 58%
    13:00 +28°C° 0 mm 4 mps 735 mmHg 55%
    14:00 +28°C° 0 mm 4 mps 735 mmHg 56%
    15:00 +28°C° 0 mm 4 mps 735 mmHg 57%
    16:00 +28°C° 0 mm 4 mps 734 mmHg 58%
    17:00 +27°C° 0 mm 4 mps 734 mmHg 64%
    18:00 +26°C° 0 mm 3 mps 734 mmHg 69%
    19:00 +25°C° 0 mm 3 mps 734 mmHg 74%
    20:00 +24°C° 0 mm 3 mps 734 mmHg 76%
    21:00 +22°C° 0 mm 4 mps 734 mmHg 78%
    22:00 +20°C° 0 mm 4 mps 734 mmHg 80%
    23:00 +20°C° 0 mm 4 mps 734 mmHg 79%

    Tomorrow, 17 July, Tuesday

    Time Temperature Precipitation Wind Pressure Humidity
    00:00 +20°C° 0 mm 5 mps 734 mmHg 77%
    01:00 +20°C° 0 mm 5 mps 734 mmHg 75%
    02:00 +20°C° 0 mm 5 mps 734 mmHg 74%
    03:00 +19°C° 0 mm 5 mps 734 mmHg 72%
    04:00 +19°C° 0 mm 4 mps 734 mmHg 71%
    05:00 +19°C° 0.1 mm 5 mps 734 mmHg 73%
    06:00 +19°C° 0.1 mm 5 mps 734 mmHg 76%
    07:00 +19°C° 0.1 mm 5 mps 734 mmHg 78%
    08:00 +21°C° 0 mm 5 mps 734 mmHg 75%
    09:00 +23°C° 0 mm 6 mps 734 mmHg 71%
    10:00 +24°C° 0 mm 6 mps 735 mmHg 68%
    11:00 +26°C° 0 mm 6 mps 734 mmHg 65%
    12:00 +27°C° 0 mm 7 mps 734 mmHg 62%
    13:00 +28°C° 0 mm 7 mps 734 mmHg 60%
    14:00 +28°C° 0 mm 6 mps 734 mmHg 61%
    15:00 +28°C° 0 mm 5 mps 733 mmHg 63%
    16:00 +28°C° 0 mm 5 mps 733 mmHg 65%
    17:00 +27°C° 0 mm 5 mps 733 mmHg 67%
    18:00 +27°C° 0 mm 5 mps 733 mmHg 69%
    19:00 +26°C° 0 mm 5 mps 733 mmHg 72%
    20:00 +26°C° 0.3 mm 5 mps 733 mmHg 71%
    21:00 +25°C° 0.3 mm 5 mps 733 mmHg 71%
    22:00 +23°C° 0.3 mm 5 mps 733 mmHg 70%
    23:00 +22°C° 2 mm 5 mps 732 mmHg 75%

    Day after tomorrow, 18 July, Wednesday

    Time Temperature Precipitation Wind Pressure Humidity
    00:00 +21°C° 2 mm 5 mps 732 mmHg 79%
    01:00 +20°C° 2 mm 5 mps 732 mmHg 83%
    02:00 +20°C° 0.9 mm 5 mps 732 mmHg 84%
    03:00 +19°C° 0.9 mm 5 mps 732 mmHg 86%
    04:00 +19°C° 0.9 mm 5 mps 732 mmHg 87%
    05:00 +19°C° 0.1 mm 4 mps 733 mmHg 86%
    06:00 +20°C° 0.1 mm 4 mps 733 mmHg 86%
    07:00 +20°C° 0.1 mm 4 mps 733 mmHg 85%
    08:00 +22°C° 0.2 mm 4 mps 733 mmHg 81%
    09:00 +23°C° 0.2 mm 5 mps 733 mmHg 76%
    10:00 +25°C° 0.2 mm 5 mps 733 mmHg 71%
    11:00 +27°C° 0.1 mm 5 mps 733 mmHg 68%
    12:00 +28°C° 0.1 mm 5 mps 733 mmHg 64%
    13:00 +29°C° 0.1 mm 5 mps 733 mmHg 61%
    14:00 +29°C° 0.6 mm 5 mps 733 mmHg 63%
    15:00 +28°C° 0.6 mm 4 mps 733 mmHg 65%
    16:00 +28°C° 0.6 mm 4 mps 733 mmHg 67%
    17:00 +28°C° 0.3 mm 4 mps 733 mmHg 70%
    18:00 +27°C° 0.3 mm 3 mps 733 mmHg 72%
    19:00 +26°C° 0.3 mm 3 mps 733 mmHg 74%
    20:00 +25°C° 0.3 mm 3 mps 733 mmHg 74%
    21:00 +24°C° 0.3 mm 3 mps 734 mmHg 73%
    22:00 +22°C° 0.3 mm 3 mps 734 mmHg 73%
    23:00 +22°C° 0.1 mm 3 mps 734 mmHg 74%

    19 July, Thursday

    Time Temperature Precipitation Wind Pressure Humidity
    00:00 +21°C° 0.1 mm 2 mps 734 mmHg 75%
    01:00 +20°C° 0.1 mm 2 mps 734 mmHg 75%
    02:00 +20°C° 0 mm 2 mps 734 mmHg 76%
    03:00 +20°C° 0 mm 1 mps 734 mmHg 76%
    04:00 +20°C° 0 mm 1 mps 734 mmHg 77%
    05:00 +21°C° 0 mm 1 mps 734 mmHg 75%
    06:00 +22°C° 0 mm 1 mps 734 mmHg 74%
    07:00 +23°C° 0 mm 1 mps 735 mmHg 73%
    08:00 +24°C° 0 mm 1 mps 735 mmHg 69%
    09:00 +26°C° 0 mm 2 mps 735 mmHg 64%
    10:00 +27°C° 0 mm 2 mps 735 mmHg 59%
    11:00 +28°C° 0 mm 2 mps 735 mmHg 57%
    12:00 +29°C° 0 mm 2 mps 735 mmHg 55%
    13:00 +30°C° 0 mm 1 mps 735 mmHg 52%
    14:00 +30°C° 0.2 mm 1 mps 735 mmHg 54%
    15:00 +30°C° 0.2 mm 1 mps 735 mmHg 56%
    16:00 +30°C° 0.2 mm 1 mps 734 mmHg 58%
    17:00 +29°C° 0.6 mm 1 mps 734 mmHg 65%
    18:00 +28°C° 0.6 mm 1 mps 734 mmHg 72%
    19:00 +26°C° 0.6 mm 1 mps 734 mmHg 79%
    20:00 +25°C° 0.2 mm 2 mps 734 mmHg 81%
    21:00 +23°C° 0.2 mm 2 mps 735 mmHg 84%
    22:00 +21°C° 0.2 mm 2 mps 735 mmHg 87%
    23:00 +20°C° 0 mm 2 mps 734 mmHg 87%

    20 July, Friday

    Time Temperature Precipitation Wind Pressure Humidity
    00:00 +19°C° 0 mm 2 mps 734 mmHg 88%
    01:00 +20°C° 0 mm 1 mps 734 mmHg 88%
    02:00 +18°C° 0 mm 2 mps 734 mmHg 89%
    03:00 +18°C° 0 mm 2 mps 734 mmHg 89%
    04:00 +17°C° 0 mm 2 mps 734 mmHg 89%
    05:00 +18°C° 0 mm 2 mps 734 mmHg 86%
    06:00 +19°C° 0 mm 2 mps 734 mmHg 84%
    07:00 +20°C° 0 mm 2 mps 734 mmHg 81%
    08:00 +23°C° 0 mm 2 mps 734 mmHg 74%
    09:00 +25°C° 0 mm 2 mps 734 mmHg 67%
    10:00 +27°C° 0 mm 2 mps 734 mmHg 60%
    11:00 +28°C° 0 mm 2 mps 734 mmHg 57%
    12:00 +29°C° 0 mm 2 mps 734 mmHg 54%
    13:00 +29°C° 0 mm 2 mps 734 mmHg 52%
    14:00 +30°C° 0 mm 2 mps 734 mmHg 52%
    15:00 +30°C° 0 mm 2 mps 733 mmHg 53%
    16:00 +30°C° 0 mm 2 mps 733 mmHg 54%
    17:00 +29°C° 0.2 mm 2 mps 733 mmHg 61%
    18:00 +28°C° 0.2 mm 2 mps 733 mmHg 68%
    19:00 +26°C° 0.2 mm 2 mps 733 mmHg 76%
    20:00 +25°C° 0 mm 2 mps 733 mmHg 79%
    21:00 +23°C° 0 mm 2 mps 733 mmHg 82%
    22:00 +21°C° 0 mm 3 mps 733 mmHg 85%
    23:00 +20°C° 0 mm 3 mps 733 mmHg 87%

    21 July, Saturday

    Time Temperature Precipitation Wind Pressure Humidity
    00:00 +20°C° 0 mm 3 mps 732 mmHg 89%
    01:00 +19°C° 0 mm 3 mps 732 mmHg 91%
    02:00 +19°C° 0 mm 3 mps 732 mmHg 91%
    03:00 +19°C° 0 mm 3 mps 732 mmHg 92%
    04:00 +18°C° 0 mm 3 mps 732 mmHg 93%
    05:00 +19°C° 0 mm 4 mps 733 mmHg 90%
    06:00 +20°C° 0 mm 4 mps 733 mmHg 86%
    07:00 +21°C° 0 mm 4 mps 733 mmHg 83%
    08:00 +22°C° 0 mm 4 mps 733 mmHg 78%
    09:00 +25°C° 0 mm 5 mps 733 mmHg 73%
    10:00 +26°C° 0 mm 5 mps 733 mmHg 68%
    11:00 +26°C° 0 mm 5 mps 733 mmHg 65%
    12:00 +27°C° 0 mm 5 mps 733 mmHg 63%
    13:00 +27°C° 0 mm 5 mps 733 mmHg 60%
    14:00 +27°C° 0.2 mm 5 mps 733 mmHg 62%
    15:00 +27°C° 0.2 mm 5 mps 733 mmHg 64%
    16:00 +27°C° 0.2 mm 4 mps 733 mmHg 66%
    17:00 +26°C° 0.3 mm 4 mps 733 mmHg 70%
    18:00 +25°C° 0.3 mm 4 mps 733 mmHg 74%
    19:00 +23°C° 0.3 mm 4 mps 733 mmHg 79%
    20:00 +22°C° 0 mm 4 mps 733 mmHg 78%
    21:00 +20°C° 0 mm 4 mps 733 mmHg 78%
    22:00 +19°C° 0 mm 4 mps 734 mmHg 77%
    23:00 +19°C° 0 mm 4 mps 734 mmHg 77%
    Show more